Location: Baia Mare
(47.6567°N, 23.5850°E)
Time: 13:31:22
(UTC+03:00)

ISS - Pass Details

Date: 13 July 2019
Orbit: 409 x 418 km, 51.6° (Epoch: 21 July)

Event Time Altitude Azimuth Distance (km) Brightness Sun altitude
Exits shadow 01:51:22 72° 304° (NW) 438 -3.7 -20.3°
Maximum altitude 01:51:32 75° 338° (NNW) 431 -3.7 -20.3°
Drops below altitude 10° 01:54:52 10° 65° (ENE) 1,481 -0.6 -20.2°
Sets 01:56:57 0° 67° (ENE) 2,344 0.4 -20.2°
